Find Telecom 1C

NORAD ID: 18952 Int'l Des: 1988-018 Owner: FTEL Country: F operational
HEOCIRCULAR

リアルタイム位置

3D地球を読み込み中...

Telecom 1Cについて

説明を読み込み中...

次回通過

Passes for default location (London). Set your location on the main map for personalized predictions.

高度履歴

Loading altitude history...

軌道要素

1 18952U 88018B 26120.14451380 -.00000037 00000-0 00000+0 0 9997
2 18952 15.1018 349.6633 0096827 153.1099 198.8919 0.97956778114972
Epoch: Apr 30, 2026 • Age: 8 hours

現在のステータス

高度 36160.0 km
速度 3.07 km/s
衛星直下点 14.43°N, 68.6°E
打ち上げ日 Mar 11, 1988
運用期間 38.1 years
タイプ other

技術仕様

分類 Payload
質量 693.00 kg
乾燥質量 525.00 kg
総質量 1213.00 kg
長さ 3.00 m
直径 2.20 m
スパン 16.00 m
形状 Box + 2 Pan
製造者 MATT
バスタイプ ECS
フェーズステータス In Orbit
所有者/国 FTEL/F

Most Searched